Current weather by "City, St" or "zip code"  
 
Advertise Here

Current Conditions: Clinton, MO, MO

Fog


50.0 F

Last Updated on Feb 28 2021, 5:55 am CST
Humidity: 100%
Wind Speed: N 0.0 mph
Barometer 29.79 in
Dewpoint: 50.0 F
Visibility: 0.25 mi
Precip: --
Heat Index: NA
Wind Chill: NA
Current conditions at:

Clinton, MO, MO (KGLY)

Lat: 38.3566 Lon: 93.6842

Local Radar Image active severe weather and emergency alerts image image weather storm and storm spotter reports image weather observation monitoring service image
Local
Radar
Active
Alerts
Storm Reports Obs
Monitoring

Sign-up For Email & Text Message Weather Alert Notification Services


Advertise Here

Observation History for Clinton, MO, MO


Time Wind
(mph)
Vis
(mi)
Weather Precip (in) Temperature (F) Relative
Humidity
Wind
Chill
(F)
Heat
Index
(F)
Pressure
Air Dwpt altimeter
(in)
sea level
(mb)
Rmks
5:55 am CST N 0.0 0.25 Fog -- 50.0 50.0 100% NA NA 29.79 M
4:55 am CST N 0.0 2.50 Fog/Mist -- 52.0 51.8 100% NA NA 29.76 M
3:55 am CST S 4.6 0.75 Fog/Mist -- 52.0 51.8 100% 51 NA 29.74 M
2:55 am CST N 0.0 5.00 Fog/Mist -- 52.0 51.8 100% NA NA 29.76 M
1:55 am CST NW 11.5 9.00 Overcast -- 54.0 53.6 100% 51 NA 29.80 M
12:55 am CST SW 8.1 10.00 Overcast -- 54.0 53.6 100% 52 NA 29.76 M
11:55 pm CST S 10.4 9.00 Unknown Precip -- 52.0 51.8 100% 48 NA 29.76 M
10:55 pm CST S 9.2 10.00 Overcast -- 52.0 48.2 88% 49 NA 29.78 M
9:55 pm CST S 8.1 G 13.8 10.00 Overcast -- 52.0 46.4 82% 49 NA 29.80 M
8:55 pm CST SE 8.1 10.00 Overcast -- 52.0 44.6 77% 49 NA 29.80 M
7:55 pm CST S 16.1 10.00 Overcast -- 55.0 41.0 59% 51 NA 29.80 M
6:55 pm CST SE 9.2 10.00 Mostly Cloudy -- 57.0 39.2 51% 55 NA 29.81 M
5:55 pm CST SE 10.4 G 17.3 10.00 Fair -- 57.0 37.4 48% 55 NA 29.79 M
4:55 pm CST SE 10.4 10.00 Fair -- 61.0 37.4 42% 60 NA 29.82 M
3:55 pm CST SE 10.4 G 16.1 10.00 Fair -- 61.0 37.4 42% 60 NA 29.83 M
2:55 pm CST SE 11.5 G 18.4 10.00 Fair -- 61.0 37.4 42% 59 NA 29.86 M
1:55 pm CST SE 11.5 G 18.4 10.00 Fair -- 61.0 33.8 36% 59 NA 29.88 M
12:55 pm CST S 9.2 G 16.1 10.00 Fair -- 59.0 39.2 48% 57 NA 29.93 M
11:55 am CST S 11.5 10.00 Fair -- 54.0 42.8 67% 51 NA 29.98 M
10:55 am CST SE 6.9 9.00 Partly Cloudy -- 45.0 44.6 100% 41 NA 30.00 M
9:55 am CST SE 3.5 0.15 Fog -- 41.0 41.0 100% NA NA 30.01 M
8:55 am CST S 5.8 0.15 Fog -- 37.0 37.4 100% 32 NA 30.02 M
7:55 am CST N 0.0 0.15 Fog -- 34.0 33.8 100% NA NA 30.00 M
6:55 am CST N 0.0 0.15 Fog -- 34.0 33.8 100% NA NA 29.98 M

Regional Weather Observation


Clinton, MO, MO (KGLY)

Fog
50.0 F

Whiteman Air Force Base, MO (KSZL)

Light Drizzle Fog/Mist
49.0 F

Warsaw Municipal Airport, MO (KRAW)

Light Drizzle
52.0 F

Harrisonville Lawrence Smith Memorial Airport, MO (KLRY)

Overcast
52.0 F

Sedalia, Sedalia Memorial Airport, MO (KDMO)

Fog/Mist
52.0 F

Lees Summit, Lees Summit Municipal Airport, MO (KLXT)

Overcast
50.0 F
Advertise Here

Advertise Here